| time (UTC) | temp F | wind direction | speed knots | gust knots | rain 1hr in | rain 24hr in | rain mn in | humidity % | barometer mb |
| 20260901081220 | 85 | 146 | 0.9 | 6.1 | 0.00 | 0.00 | 0.00 | 55 | 1014.6 |
| 20260901080430 | 85 | 186 | 0.9 | 4.3 | 0.00 | 0.00 | 0.00 | 55 | 1014.5 |
| 20260901080129 | 85 | 233 | 0.9 | 3.5 | 0.00 | 0.00 | 0.00 | 56 | 1014.5 |
| 20260901075340 | 85 | 147 | 0.9 | 3.5 | 0.00 | 0.00 | 0.00 | 56 | 1014.5 |
| 20260901074836 | 85 | 247 | 0.9 | 3.5 | 0.00 | 0.00 | 0.00 | 56 | 1014.5 |
| 20260901074335 | 85 | 130 | 0.9 | 3.5 | 0.00 | 0.00 | 0.00 | 56 | 1014.5 |
| 20260901073818 | 85 | 150 | 0.9 | 3.5 | 0.00 | 0.00 | 0.00 | 55 | 1014.5 |
| 20260901073321 | 85 | 119 | 0.9 | 4.3 | 0.00 | 0.00 | 0.00 | 55 | 1014.5 |
| 20260901073012 | 85 | 138 | 0.9 | 6.1 | 0.00 | 0.00 | 0.00 | 54 | 1014.5 |
| 20260901072450 | 85 | 141 | 1.7 | 6.1 | 0.00 | 0.00 | 0.00 | 53 | 1014.5 |
| 20260901071701 | 85 | 124 | 1.7 | 4.3 | 0.00 | 0.00 | 0.00 | 53 | 1014.5 |
| 20260901071159 | 85 | 132 | 1.7 | 7.0 | 0.00 | 0.00 | 0.00 | 53 | 1014.4 |
| 20260901070630 | 85 | 172 | 1.7 | 5.2 | 0.00 | 0.00 | 0.00 | 53 | 1014.4 |
| 20260901070128 | 85 | 141 | 1.7 | 6.1 | 0.00 | 0.00 | 0.00 | 53 | 1014.5 |
| 20260901065600 | 86 | 152 | 1.7 | 6.1 | 0.00 | 0.00 | 0.00 | 52 | 1014.4 |
| 20260901065542 | 86 | 132 | 1.7 | 6.1 | 0.00 | 0.00 | 0.00 | 52 | 1014.5 |
| 20260901064530 | 86 | 146 | 1.7 | 6.1 | 0.00 | 0.00 | 0.00 | 52 | 1014.4 |
| 20260901064247 | 86 | 133 | 1.7 | 6.1 | 0.00 | 0.00 | 0.00 | 52 | 1014.3 |
| 20260901063524 | 86 | 146 | 0.9 | 6.1 | 0.00 | 0.00 | 0.00 | 52 | 1014.3 |
| 20260901062959 | 86 | 143 | 0.9 | 6.1 | 0.00 | 0.00 | 0.00 | 51 | 1014.3 |
| 20260901062434 | 86 | 122 | 0.9 | 2.6 | 0.00 | 0.00 | 0.00 | 51 | 1014.3 |
| 20260901061906 | 86 | 110 | 0.9 | 3.5 | 0.00 | 0.00 | 0.00 | 50 | 1014.3 |
| 20260901061403 | 86 | 136 | 0.9 | 3.5 | 0.00 | 0.00 | 0.00 | 50 | 1014.2 |
| 20260901060900 | 86 | 126 | 1.7 | 4.3 | 0.00 | 0.00 | 0.00 | 50 | 1014.2 |
| 20260901060357 | 86 | 125 | 1.7 | 5.2 | 0.00 | 0.00 | 0.00 | 49 | 1014.1 |
| 20260901055854 | 86 | 129 | 1.7 | 5.2 | 0.00 | 0.00 | 0.00 | 49 | 1014.0 |
| 20260901055350 | 86 | 103 | 1.7 | 5.2 | 0.00 | 0.00 | 0.00 | 49 | 1013.9 |
| 20260901055112 | 86 | 135 | 1.7 | 5.2 | 0.00 | 0.00 | 0.00 | 49 | 1013.9 |
| 20260901054347 | 87 | 165 | 1.7 | 4.3 | 0.00 | 0.00 | 0.00 | 49 | 1013.8 |
| 20260901053819 | 87 | 105 | 1.7 | 5.2 | 0.00 | 0.00 | 0.00 | 49 | 1013.9 |
| 20260901053312 | 87 | 117 | 1.7 | 5.2 | 0.00 | 0.00 | 0.00 | 49 | 1013.8 |
| 20260901052808 | 87 | 116 | 1.7 | 5.2 | 0.00 | 0.00 | 0.00 | 48 | 1013.7 |
| 20260901052308 | 87 | 117 | 1.7 | 5.2 | 0.00 | 0.00 | 0.00 | 47 | 1013.7 |
| 20260901051740 | 87 | 108 | 2.6 | 7.0 | 0.00 | 0.00 | 0.00 | 47 | 1013.7 |
| 20260901051239 | 87 | 108 | 2.6 | 7.0 | 0.00 | 0.00 | 0.00 | 46 | 1013.7 |
| 20260901050734 | 87 | 147 | 1.7 | 7.0 | 0.00 | 0.00 | 0.00 | 46 | 1013.7 |
| 20260901050453 | 87 | 129 | 1.7 | 5.2 | 0.00 | 0.00 | 0.00 | 47 | 1013.6 |
| 20260901045708 | 87 | 129 | 0.9 | 4.3 | 0.00 | 0.00 | 0.00 | 47 | 1013.6 |
| 20260901045207 | 86 | 119 | 0.9 | 3.5 | 0.00 | 0.00 | 0.00 | 47 | 1013.7 |
| 20260901044638 | 86 | 139 | 0.9 | 3.5 | 0.00 | 0.00 | 0.00 | 48 | 1013.5 |
| 20260901044134 | 85 | 124 | 0.0 | 3.5 | 0.00 | 0.00 | 0.00 | 49 | 1013.5 |
| 20260901043611 | 84 | 121 | 0.0 | 0.9 | 0.00 | 0.00 | 0.00 | 50 | 1013.5 |
| 20260901043310 | 84 | 121 | 0.0 | 0.9 | 0.00 | 0.00 | 0.00 | 52 | 1013.4 |
| 20260901042545 | 83 | 121 | 0.0 | 0.9 | 0.00 | 0.00 | 0.00 | 54 | 1013.5 |
| 20260901042022 | 82 | 121 | 0.0 | 0.0 | 0.00 | 0.00 | 0.00 | 56 | 1013.4 |
| 20260901041502 | 82 | 121 | 0.0 | 0.9 | 0.00 | 0.00 | 0.00 | 56 | 1013.5 |
| 20260901041000 | 82 | 121 | 0.0 | 0.9 | 0.00 | 0.00 | 0.00 | 57 | 1013.5 |
| 20260901040454 | 82 | 121 | 0.0 | 0.0 | 0.00 | 0.00 | 0.00 | 55 | 1013.3 |
| 20260901035955 | 83 | 121 | 0.0 | 0.0 | 0.00 | 0.00 | 0.00 | 54 | 1013.3 |
| 20260901035451 | 83 | 121 | 0.0 | 0.0 | 0.00 | 0.00 | 0.00 | 54 | 1013.4 |
| 20260901034950 | 84 | 121 | 0.0 | 0.0 | 0.00 | 0.00 | 0.00 | 52 | 1013.4 |
| 20260901034427 | 84 | 121 | 0.0 | 0.0 | 0.00 | 0.00 | 0.00 | 52 | 1013.4 |
| 20260901033926 | 85 | 121 | 0.0 | 0.0 | 0.00 | 0.00 | 0.00 | 51 | 1013.4 |
| 20260901033422 | 86 | 121 | 0.0 | 0.0 | 0.00 | 0.00 | 0.00 | 50 | 1013.3 |
| 20260901032901 | 86 | 121 | 0.0 | 0.0 | 0.00 | 0.00 | 0.00 | 49 | 1013.3 |
| 20260901032347 | 87 | 121 | 0.0 | 0.0 | 0.00 | 0.00 | 0.00 | 47 | 1013.3 |
| 20260901031846 | 88 | 121 | 0.0 | 0.0 | 0.00 | 0.00 | 0.00 | 47 | 1013.3 |
| 20260901031610 | 88 | 121 | 0.0 | 0.0 | 0.00 | 0.00 | 0.00 | 45 | 1013.3 |
| 20260901030828 | 89 | 121 | 0.0 | 0.0 | 0.00 | 0.00 | 0.00 | 43 | 1013.2 |
| 20260901030308 | 89 | 121 | 0.0 | 0.0 | 0.00 | 0.00 | 0.00 | 42 | 1013.1 |
| 20260901025742 | 89 | 121 | 0.0 | 0.0 | 0.00 | 0.00 | 0.00 | 42 | 1013.1 |
| 20260901025456 | 89 | 121 | 0.0 | 0.0 | 0.00 | 0.00 | 0.00 | 42 | 1013.0 |
| 20260901024705 | 89 | 121 | 0.0 | 0.0 | 0.00 | 0.00 | 0.00 | 42 | 1012.9 |
| 20260901024142 | 90 | 121 | 0.0 | 0.0 | 0.00 | 0.00 | 0.00 | 42 | 1012.8 |
| 20260901023621 | 90 | 121 | 0.0 | 0.0 | 0.00 | 0.00 | 0.00 | 43 | 1012.8 |
| 20260901023119 | 90 | 121 | 0.0 | 0.0 | 0.00 | 0.00 | 0.00 | 43 | 1012.7 |
| 20260901022620 | 90 | 128 | 0.0 | 0.0 | 0.00 | 0.00 | 0.00 | 42 | 1012.7 |
| 20260901022054 | 90 | 128 | 0.0 | 0.9 | 0.00 | 0.00 | 0.00 | 41 | 1012.6 |
| 20260901021549 | 91 | 128 | 0.0 | 0.9 | 0.00 | 0.00 | 0.00 | 40 | 1012.6 |
| 20260901021030 | 91 | 128 | 0.0 | 0.9 | 0.00 | 0.00 | 0.00 | 40 | 1012.5 |
| 20260901020459 | 91 | 128 | 0.0 | 0.9 | 0.00 | 0.00 | 0.00 | 40 | 1012.5 |
| 20260901015934 | 91 | 122 | 0.0 | 0.0 | 0.00 | 0.00 | 0.00 | 40 | 1012.4 |
| 20260901015640 | 92 | 122 | 0.0 | 1.7 | 0.00 | 0.00 | 0.00 | 39 | 1012.4 |
| 20260901014847 | 92 | 139 | 0.0 | 1.7 | 0.00 | 0.00 | 0.00 | 38 | 1012.4 |
| 20260901014329 | 92 | 121 | 0.0 | 0.9 | 0.00 | 0.00 | 0.00 | 38 | 1012.4 |
| 20260901013803 | 92 | 123 | 0.0 | 0.9 | 0.00 | 0.00 | 0.00 | 37 | 1012.4 |
| 20260901013708 | 93 | 113 | 0.0 | 0.9 | 0.00 | 0.00 | 0.00 | 36 | 1012.4 |
| 20260901013327 | 93 | 113 | 0.0 | 0.9 | 0.00 | 0.00 | 0.00 | 37 | 1012.3 |
| 20260901012231 | 93 | 134 | 0.0 | 0.9 | 0.00 | 0.00 | 0.00 | 36 | 1012.2 |
| 20260901011727 | 94 | 134 | 0.0 | 1.7 | 0.00 | 0.00 | 0.00 | 35 | 1012.3 |
| 20260901011158 | 94 | 127 | 0.0 | 2.6 | 0.00 | 0.00 | 0.00 | 34 | 1012.2 |
| 20260901010658 | 94 | 148 | 0.9 | 1.7 | 0.00 | 0.00 | 0.00 | 33 | 1012.2 |
| 20260901010153 | 95 | 132 | 0.9 | 3.5 | 0.00 | 0.00 | 0.00 | 32 | 1012.1 |
| 20260901005653 | 95 | 140 | 0.0 | 2.6 | 0.00 | 0.00 | 0.00 | 32 | 1012.1 |
| 20260901005127 | 96 | 139 | 0.9 | 3.5 | 0.00 | 0.00 | 0.00 | 31 | 1012.1 |
| 20260901004846 | 96 | 131 | 0.9 | 2.6 | 0.00 | 0.00 | 0.00 | 31 | 1012.0 |
| 20260901004033 | 96 | 121 | 1.7 | 5.2 | 0.00 | 0.00 | 0.00 | 30 | 1012.1 |
| 20260901003534 | 97 | 120 | 1.7 | 5.2 | 0.00 | 0.00 | 0.00 | 29 | 1012.0 |
| 20260901003005 | 98 | 133 | 1.7 | 7.0 | 0.00 | 0.00 | 0.00 | 28 | 1012.0 |
| 20260901002501 | 98 | 132 | 2.6 | 7.0 | 0.00 | 0.00 | 0.00 | 28 | 1012.0 |
| 20260901001955 | 98 | 110 | 2.6 | 7.0 | 0.00 | 0.00 | 0.00 | 28 | 1012.0 |
| 20260901001720 | 99 | 101 | 1.7 | 5.2 | 0.00 | 0.00 | 0.00 | 28 | 1012.0 |
| 20260901001416 | 99 | 167 | 1.7 | 5.2 | 0.00 | 0.00 | 0.00 | 27 | 1012.1 |
| 20260901000359 | 99 | 130 | 0.9 | 4.3 | 0.00 | 0.00 | 0.00 | 27 | 1012.0 |
| 20260831235856 | 99 | 120 | 1.7 | 4.3 | 0.00 | 0.00 | 0.00 | 26 | 1012.0 |
| 20260831235340 | 100 | 101 | 2.6 | 7.0 | 0.00 | 0.00 | 0.00 | 26 | 1012.1 |
| 20260831234946 | 100 | 121 | 1.7 | 6.1 | 0.00 | 0.00 | 0.00 | 26 | 1012.1 |
| 20260831234218 | 100 | 113 | 0.9 | 5.2 | 0.00 | 0.00 | 0.00 | 26 | 1012.1 |
| 20260831233713 | 100 | 112 | 0.9 | 4.3 | 0.00 | 0.00 | 0.00 | 27 | 1012.1 |
| 20260831233146 | 100 | 155 | 1.7 | 5.2 | 0.00 | 0.00 | 0.00 | 26 | 1012.0 |
| 20260831232622 | 100 | 151 | 1.7 | 6.1 | 0.00 | 0.00 | 0.00 | 26 | 1012.0 |
| 20260831232053 | 100 | 127 | 1.7 | 6.1 | 0.00 | 0.00 | 0.00 | 25 | 1012.0 |
| 20260831231527 | 100 | 158 | 1.7 | 7.8 | 0.00 | 0.00 | 0.00 | 26 | 1011.9 |
| 20260831231223 | 100 | 135 | 1.7 | 5.2 | 0.00 | 0.00 | 0.00 | 25 | 1012.0 |
| 20260831230435 | 100 | 218 | 2.6 | 6.1 | 0.00 | 0.00 | 0.00 | 25 | 1012.0 |
| 20260831225907 | 101 | 141 | 2.6 | 7.0 | 0.00 | 0.00 | 0.00 | 24 | 1012.1 |
| 20260831225403 | 101 | 134 | 2.6 | 7.0 | 0.00 | 0.00 | 0.00 | 24 | 1012.1 |
| 20260831224838 | 101 | 176 | 2.6 | 7.8 | 0.00 | 0.00 | 0.00 | 24 | 1012.2 |
| 20260831224309 | 101 | 233 | 1.7 | 7.8 | 0.00 | 0.00 | 0.00 | 24 | 1012.2 |
| 20260831223807 | 101 | 158 | 1.7 | 5.2 | 0.00 | 0.00 | 0.00 | 24 | 1012.2 |
| 20260831223303 | 101 | 107 | 2.6 | 5.2 | 0.00 | 0.00 | 0.00 | 24 | 1012.3 |
| 20260831222802 | 101 | 232 | 2.6 | 6.1 | 0.00 | 0.00 | 0.00 | 24 | 1012.3 |
| 20260831222232 | 101 | 136 | 1.7 | 6.1 | 0.00 | 0.00 | 0.00 | 25 | 1012.3 |
| 20260831221953 | 101 | 113 | 1.7 | 5.2 | 0.00 | 0.00 | 0.00 | 25 | 1012.4 |
| 20260831221223 | 101 | 115 | 2.6 | 7.0 | 0.00 | 0.00 | 0.00 | 24 | 1012.4 |
| 20260831220722 | 101 | 117 | 2.6 | 7.8 | 0.00 | 0.00 | 0.00 | 24 | 1012.4 |
| 20260831220154 | 101 | 152 | 2.6 | 7.0 | 0.00 | 0.00 | 0.00 | 24 | 1012.5 |
| 20260831215651 | 102 | 222 | 2.6 | 6.1 | 0.00 | 0.00 | 0.00 | 24 | 1012.5 |
| 20260831215120 | 101 | 119 | 2.6 | 6.1 | 0.00 | 0.00 | 0.00 | 24 | 1012.5 |
| 20260831214556 | 101 | 94 | 3.5 | 7.8 | 0.00 | 0.00 | 0.00 | 25 | 1012.6 |
| 20260831214029 | 101 | 215 | 2.6 | 7.8 | 0.00 | 0.00 | 0.00 | 24 | 1012.6 |
| 20260831213501 | 101 | 159 | 2.6 | 7.0 | 0.00 | 0.00 | 0.00 | 24 | 1012.7 |
| 20260831212959 | 101 | 161 | 1.7 | 5.2 | 0.00 | 0.00 | 0.00 | 25 | 1012.7 |
| 20260831212654 | 101 | 129 | 2.6 | 8.7 | 0.00 | 0.00 | 0.00 | 26 | 1012.8 |
| 20260831211905 | 101 | 126 | 2.6 | 8.7 | 0.00 | 0.00 | 0.00 | 26 | 1012.8 |
| 20260831211404 | 101 | 208 | 3.5 | 8.7 | 0.00 | 0.00 | 0.00 | 24 | 1012.9 |
| 20260831210855 | 101 | 146 | 2.6 | 8.7 | 0.00 | 0.00 | 0.00 | 25 | 1013.0 |
| 20260831210354 | 101 | 229 | 2.6 | 7.0 | 0.00 | 0.00 | 0.00 | 26 | 1013.0 |
| 20260831205828 | 100 | 120 | 3.5 | 8.7 | 0.00 | 0.00 | 0.00 | 26 | 1013.1 |
| 20260831205544 | 101 | 122 | 3.5 | 9.6 | 0.00 | 0.00 | 0.00 | 26 | 1013.2 |
| 20260831204818 | 101 | 147 | 2.6 | 9.6 | 0.00 | 0.00 | 0.00 | 26 | 1013.2 |
| 20260831204249 | 101 | 126 | 3.5 | 7.8 | 0.00 | 0.00 | 0.00 | 26 | 1013.4 |
| 20260831203747 | 101 | 135 | 2.6 | 7.8 | 0.00 | 0.00 | 0.00 | 26 | 1013.4 |
| 20260831203244 | 101 | 207 | 3.5 | 8.7 | 0.00 | 0.00 | 0.00 | 25 | 1013.5 |
| 20260831202718 | 101 | 109 | 2.6 | 9.6 | 0.00 | 0.00 | 0.00 | 25 | 1013.5 |
| 20260831202203 | 102 | 123 | 1.7 | 8.7 | 0.00 | 0.00 | 0.00 | 25 | 1013.6 |
| 20260831201703 | 101 | 114 | 3.5 | 8.7 | 0.00 | 0.00 | 0.00 | 24 | 1013.7 |
| 20260831201203 | 100 | 247 | 3.5 | 8.7 | 0.00 | 0.00 | 0.00 | 26 | 1013.7 |
| 20260831200701 | 101 | 148 | 2.6 | 8.7 | 0.00 | 0.00 | 0.00 | 26 | 1013.7 |
| 20260831200201 | 101 | 186 | 3.5 | 8.7 | 0.00 | 0.00 | 0.00 | 25 | 1013.9 |
| 20260831195915 | 101 | 250 | 2.6 | 8.7 | 0.00 | 0.00 | 0.00 | 27 | 1014.0 |
| 20260831195152 | 101 | 165 | 2.6 | 8.7 | 0.00 | 0.00 | 0.00 | 26 | 1014.1 |
| 20260831194649 | 101 | 107 | 3.5 | 7.0 | 0.00 | 0.00 | 0.00 | 27 | 1014.1 |
| 20260831194146 | 100 | 230 | 4.3 | 9.6 | 0.00 | 0.00 | 0.00 | 30 | 1014.2 |
| 20260831193621 | 100 | 210 | 3.5 | 9.6 | 0.00 | 0.00 | 0.00 | 29 | 1014.3 |
| 20260831193055 | 100 | 134 | 3.5 | 8.7 | 0.00 | 0.00 | 0.00 | 29 | 1014.4 |
| 20260831192530 | 100 | 221 | 3.5 | 7.8 | 0.00 | 0.00 | 0.00 | 30 | 1014.4 |
| 20260831192001 | 100 | 231 | 3.5 | 7.8 | 0.00 | 0.00 | 0.00 | 30 | 1014.5 |
| 20260831191500 | 100 | 110 | 3.5 | 7.8 | 0.00 | 0.00 | 0.00 | 31 | 1014.6 |
| 20260831190931 | 100 | 77 | 3.5 | 7.8 | 0.00 | 0.00 | 0.00 | 31 | 1014.5 |
| 20260831190427 | 100 | 214 | 3.5 | 7.8 | 0.00 | 0.00 | 0.00 | 31 | 1014.5 |
| 20260831185925 | 99 | 115 | 3.5 | 11.3 | 0.00 | 0.00 | 0.00 | 31 | 1014.6 |
| 20260831185424 | 99 | 159 | 3.5 | 11.3 | 0.00 | 0.00 | 0.00 | 30 | 1014.7 |
| 20260831184855 | 100 | 105 | 3.5 | 9.6 | 0.00 | 0.00 | 0.00 | 31 | 1014.7 |
| 20260831184616 | 99 | 125 | 3.5 | 9.6 | 0.00 | 0.00 | 0.00 | 32 | 1014.7 |
| 20260831183849 | 99 | 120 | 3.5 | 9.6 | 0.00 | 0.00 | 0.00 | 31 | 1014.8 |
| 20260831183348 | 99 | 153 | 3.5 | 8.7 | 0.00 | 0.00 | 0.00 | 31 | 1014.8 |
| 20260831182818 | 99 | 117 | 3.5 | 8.7 | 0.00 | 0.00 | 0.00 | 31 | 1014.9 |
| 20260831182728 | 99 | 127 | 3.5 | 7.8 | 0.00 | 0.00 | 0.00 | 29 | 1014.9 |
| 20260831181747 | 99 | 164 | 1.7 | 7.8 | 0.00 | 0.00 | 0.00 | 33 | 1015.0 |
| 20260831181219 | 99 | 120 | 1.7 | 6.1 | 0.00 | 0.00 | 0.00 | 32 | 1015.1 |
| 20260831180717 | 98 | 115 | 2.6 | 7.0 | 0.00 | 0.00 | 0.00 | 32 | 1015.2 |
| 20260831180153 | 99 | 231 | 2.6 | 7.0 | 0.00 | 0.00 | 0.00 | 32 | 1015.3 |
| 20260831175627 | 98 | 129 | 1.7 | 7.0 | 0.00 | 0.00 | 0.00 | 32 | 1015.4 |
| 20260831175121 | 98 | 160 | 1.7 | 7.0 | 0.00 | 0.00 | 0.00 | 34 | 1015.5 |
| 20260831174619 | 98 | 249 | 2.6 | 8.7 | 0.00 | 0.00 | 0.00 | 33 | 1015.6 |
| 20260831174051 | 97 | 148 | 2.6 | 8.7 | 0.00 | 0.00 | 0.00 | 35 | 1015.6 |
| 20260831173812 | 97 | 222 | 1.7 | 7.0 | 0.00 | 0.00 | 0.00 | 36 | 1015.7 |
| 20260831173045 | 97 | 243 | 2.6 | 7.8 | 0.00 | 0.00 | 0.00 | 37 | 1015.8 |
| 20260831172545 | 97 | 246 | 1.7 | 7.8 | 0.00 | 0.00 | 0.00 | 36 | 1015.8 |
| 20260831172016 | 96 | 117 | 1.7 | 7.0 | 0.00 | 0.00 | 0.00 | 37 | 1015.9 |
| 20260831171514 | 96 | 161 | 3.5 | 7.8 | 0.00 | 0.00 | 0.00 | 37 | 1015.9 |
| 20260831170945 | 96 | 248 | 3.5 | 7.8 | 0.00 | 0.00 | 0.00 | 37 | 1016.0 |
| 20260831170441 | 96 | 213 | 2.6 | 7.0 | 0.00 | 0.00 | 0.00 | 38 | 1016.0 |
| 20260831165935 | 96 | 195 | 3.5 | 8.7 | 0.00 | 0.00 | 0.00 | 39 | 1016.0 |
| 20260831165436 | 95 | 267 | 2.6 | 8.7 | 0.00 | 0.00 | 0.00 | 40 | 1016.0 |
| 20260831164909 | 95 | 130 | 2.6 | 7.8 | 0.00 | 0.00 | 0.00 | 38 | 1016.0 |
| 20260831164903 | 95 | 165 | 2.6 | 7.8 | 0.00 | 0.00 | 0.00 | 39 | 1016.2 |
| 20260831163841 | 94 | 162 | 2.6 | 7.8 | 0.00 | 0.00 | 0.00 | 41 | 1016.1 |
| 20260831163340 | 94 | 239 | 3.5 | 7.8 | 0.00 | 0.00 | 0.00 | 40 | 1016.1 |
| 20260831162814 | 94 | 210 | 3.5 | 8.7 | 0.00 | 0.00 | 0.00 | 42 | 1016.2 |
| 20260831162251 | 94 | 172 | 2.6 | 8.7 | 0.00 | 0.00 | 0.00 | 40 | 1016.2 |
| 20260831161750 | 94 | 209 | 0.9 | 6.1 | 0.00 | 0.00 | 0.00 | 41 | 1016.2 |
| 20260831161227 | 94 | 255 | 1.7 | 6.1 | 0.00 | 0.00 | 0.00 | 41 | 1016.3 |
| 20260831160927 | 93 | 122 | 1.7 | 5.2 | 0.00 | 0.00 | 0.00 | 42 | 1016.3 |
| 20260831160428 | 93 | 155 | 1.7 | 5.2 | 0.00 | 0.00 | 0.00 | 42 | 1016.2 |
| 20260831155703 | 93 | 248 | 2.6 | 6.1 | 0.00 | 0.00 | 0.00 | 41 | 1016.3 |
| 20260831155205 | 92 | 125 | 3.5 | 7.8 | 0.00 | 0.00 | 0.00 | 44 | 1016.2 |
| 20260831154644 | 91 | 219 | 2.6 | 7.8 | 0.00 | 0.00 | 0.00 | 43 | 1016.2 |
| 20260831154145 | 91 | 142 | 2.6 | 7.8 | 0.00 | 0.00 | 0.00 | 42 | 1016.3 |
| 20260831153637 | 91 | 249 | 2.6 | 7.8 | 0.00 | 0.00 | 0.00 | 43 | 1016.3 |
| 20260831153140 | 91 | 251 | 3.5 | 7.8 | 0.00 | 0.00 | 0.00 | 43 | 1016.2 |
| 20260831152618 | 91 | 227 | 3.5 | 7.8 | 0.00 | 0.00 | 0.00 | 43 | 1016.2 |
| 20260831152118 | 90 | 224 | 3.5 | 7.0 | 0.00 | 0.00 | 0.00 | 45 | 1016.2 |
| 20260831151616 | 90 | 216 | 3.5 | 7.0 | 0.00 | 0.00 | 0.00 | 46 | 1016.1 |
| 20260831151115 | 90 | 149 | 2.6 | 7.0 | 0.00 | 0.00 | 0.00 | 46 | 1016.1 |
| 20260831150614 | 89 | 224 | 2.6 | 7.0 | 0.00 | 0.00 | 0.00 | 47 | 1016.0 |
| 20260831150537 | 89 | 208 | 2.6 | 6.1 | 0.00 | 0.00 | 0.00 | 48 | 1016.1 |
| 20260831145550 | 89 | 232 | 1.7 | 7.0 | 0.00 | 0.00 | 0.00 | 51 | 1016.0 |
| 20260831145045 | 88 | 150 | 1.7 | 7.0 | 0.00 | 0.00 | 0.00 | 51 | 1016.0 |
| 20260831144814 | 88 | 235 | 0.9 | 4.3 | 0.00 | 0.00 | 0.00 | 53 | 1015.9 |
| 20260831144021 | 87 | 231 | 0.9 | 4.3 | 0.00 | 0.00 | 0.00 | 57 | 1016.0 |
| 20260831143523 | 87 | 150 | 0.9 | 4.3 | 0.00 | 0.00 | 0.00 | 57 | 1016.0 |
| 20260831142959 | 86 | 159 | 0.9 | 4.3 | 0.00 | 0.00 | 0.00 | 57 | 1016.0 |
| 20260831142456 | 86 | 223 | 0.9 | 4.3 | 0.00 | 0.00 | 0.00 | 59 | 1016.0 |
| 20260831141952 | 85 | 203 | 0.9 | 5.2 | 0.00 | 0.00 | 0.00 | 60 | 1016.0 |
| 20260831141450 | 85 | 136 | 0.9 | 5.2 | 0.00 | 0.00 | 0.00 | 60 | 1016.0 |
| 20260831140949 | 84 | 159 | 0.9 | 3.5 | 0.00 | 0.00 | 0.00 | 61 | 1016.0 |
| 20260831140449 | 84 | 261 | 0.9 | 4.3 | 0.00 | 0.00 | 0.00 | 62 | 1016.0 |
| 20260831135949 | 83 | 176 | 1.7 | 4.3 | 0.00 | 0.00 | 0.00 | 63 | 1015.9 |
| 20260831135423 | 83 | 245 | 1.7 | 4.3 | 0.00 | 0.00 | 0.00 | 63 | 1015.9 |
| 20260831134921 | 83 | 146 | 0.9 | 4.3 | 0.00 | 0.00 | 0.00 | 65 | 1015.9 |
| 20260831134414 | 82 | 229 | 0.9 | 5.2 | 0.00 | 0.00 | 0.00 | 66 | 1015.9 |
| 20260831133850 | 82 | 201 | 1.7 | 5.2 | 0.00 | 0.00 | 0.00 | 67 | 1015.7 |
| 20260831133324 | 81 | 143 | 1.7 | 5.2 | 0.00 | 0.00 | 0.00 | 67 | 1015.7 |
| 20260831132759 | 81 | 117 | 2.6 | 5.2 | 0.00 | 0.00 | 0.00 | 68 | 1015.6 |
| 20260831132527 | 81 | 194 | 2.6 | 5.2 | 0.00 | 0.00 | 0.00 | 68 | 1015.5 |
| 20260831131734 | 80 | 240 | 0.9 | 4.3 | 0.00 | 0.00 | 0.00 | 68 | 1015.4 |
| 20260831131232 | 80 | 135 | 0.9 | 5.2 | 0.00 | 0.00 | 0.00 | 68 | 1015.4 |
| 20260831130704 | 80 | 219 | 0.9 | 5.2 | 0.00 | 0.00 | 0.00 | 69 | 1015.3 |
| 20260831130200 | 80 | 140 | 1.7 | 3.5 | 0.00 | 0.00 | 0.00 | 69 | 1015.3 |
| 20260831125659 | 80 | 174 | 0.9 | 3.5 | 0.00 | 0.00 | 0.00 | 69 | 1015.3 |
| 20260831125423 | 80 | 185 | 0.9 | 4.3 | 0.00 | 0.00 | 0.00 | 70 | 1015.2 |
| 20260831124623 | 79 | 141 | 0.9 | 4.3 | 0.00 | 0.00 | 0.00 | 70 | 1015.1 |
| 20260831124320 | 79 | 169 | 0.0 | 3.5 | 0.00 | 0.00 | 0.00 | 70 | 1015.1 |
| 20260831123557 | 79 | 219 | 0.9 | 3.5 | 0.00 | 0.00 | 0.00 | 70 | 1014.9 |
| 20260831123031 | 79 | 139 | 0.9 | 2.6 | 0.00 | 0.00 | 0.00 | 70 | 1014.8 |
| 20260831122500 | 79 | 148 | 0.9 | 3.5 | 0.00 | 0.00 | 0.00 | 70 | 1014.8 |
| 20260831121958 | 79 | 224 | 0.9 | 3.5 | 0.00 | 0.00 | 0.00 | 70 | 1014.7 |
| 20260831121713 | 79 | 257 | 0.9 | 3.5 | 0.00 | 0.00 | 0.00 | 69 | 1014.7 |
| 20260831120948 | 79 | 214 | 0.9 | 3.5 | 0.00 | 0.00 | 0.00 | 69 | 1014.6 |
| 20260831120423 | 78 | 259 | 0.9 | 3.5 | 0.00 | 0.00 | 0.00 | 69 | 1014.6 |
| 20260831115920 | 78 | 184 | 0.9 | 2.6 | 0.00 | 0.00 | 0.00 | 69 | 1014.5 |
| 20260831115418 | 78 | 251 | 0.0 | 0.9 | 0.00 | 0.00 | 0.00 | 68 | 1014.4 |
| 20260831114915 | 78 | 140 | 0.0 | 2.6 | 0.00 | 0.00 | 0.00 | 67 | 1014.4 |
| 20260831114411 | 78 | 124 | 0.0 | 1.7 | 0.00 | 0.00 | 0.00 | 67 | 1014.3 |
| 20260831114141 | 78 | 256 | 0.0 | 1.7 | 0.00 | 0.00 | 0.00 | 67 | 1014.3 |
| 20260831113625 | 78 | 127 | 0.0 | 1.7 | 0.00 | 0.00 | 0.00 | 67 | 1014.2 |
| 20260831112906 | 78 | 124 | 0.0 | 0.0 | 0.00 | 0.00 | 0.00 | 66 | 1014.1 |
| 20260831112406 | 79 | 124 | 0.0 | 0.9 | 0.00 | 0.00 | 0.00 | 66 | 1014.1 |
| 20260831111906 | 79 | 124 | 0.0 | 2.6 | 0.00 | 0.00 | 0.00 | 66 | 1014.0 |
| 20260831111338 | 79 | 124 | 0.0 | 2.6 | 0.00 | 0.00 | 0.00 | 66 | 1013.9 |
| 20260831110837 | 79 | 116 | 0.0 | 2.6 | 0.00 | 0.00 | 0.00 | 66 | 1013.9 |
| 20260831110308 | 79 | 200 | 0.0 | 2.6 | 0.00 | 0.00 | 0.00 | 65 | 1013.8 |
| 20260831110029 | 78 | 131 | 0.0 | 2.6 | 0.00 | 0.00 | 0.00 | 65 | 1013.8 |
| 20260831105530 | 78 | 117 | 0.0 | 0.0 | 0.00 | 0.00 | 0.00 | 66 | 1013.8 |
| 20260831105026 | 78 | 117 | 0.0 | 0.0 | 0.00 | 0.00 | 0.00 | 66 | 1013.9 |
| 20260831104248 | 78 | 117 | 0.0 | 0.0 | 0.00 | 0.00 | 0.00 | 65 | 1013.8 |
| 20260831103751 | 78 | 117 | 0.0 | 0.0 | 0.00 | 0.00 | 0.00 | 65 | 1013.8 |
| 20260831103224 | 78 | 117 | 0.0 | 0.0 | 0.00 | 0.00 | 0.00 | 65 | 1013.8 |
| 20260831102657 | 79 | 117 | 0.0 | 0.0 | 0.00 | 0.00 | 0.00 | 64 | 1013.8 |
| 20260831102154 | 79 | 117 | 0.0 | 0.0 | 0.00 | 0.00 | 0.00 | 64 | 1013.8 |
| 20260831101852 | 79 | 117 | 0.0 | 0.0 | 0.00 | 0.00 | 0.00 | 64 | 1013.8 |
| 20260831101130 | 79 | 117 | 0.0 | 0.0 | 0.00 | 0.00 | 0.00 | 63 | 1013.8 |
| 20260831100824 | 80 | 117 | 0.0 | 0.0 | 0.00 | 0.00 | 0.00 | 62 | 1013.8 |
| 20260831095532 | 80 | 117 | 0.0 | 0.0 | 0.00 | 0.00 | 0.00 | 61 | 1013.8 |
| 20260831095028 | 80 | 208 | 0.0 | 0.0 | 0.00 | 0.00 | 0.00 | 61 | 1013.8 |
| 20260831094503 | 80 | 212 | 0.0 | 0.9 | 0.00 | 0.00 | 0.00 | 60 | 1013.8 |
| 20260831094000 | 80 | 212 | 0.0 | 0.9 | 0.00 | 0.00 | 0.00 | 60 | 1013.7 |
| 20260831093459 | 81 | 152 | 0.0 | 0.0 | 0.00 | 0.00 | 0.00 | 59 | 1013.7 |
| 20260831092930 | 81 | 152 | 0.0 | 0.0 | 0.00 | 0.00 | 0.00 | 58 | 1013.7 |
| 20260831092428 | 82 | 152 | 0.0 | 0.0 | 0.00 | 0.00 | 0.00 | 58 | 1013.6 |
| 20260831091900 | 82 | 152 | 0.0 | 0.0 | 0.00 | 0.00 | 0.00 | 57 | 1013.5 |
| 20260831091359 | 82 | 152 | 0.0 | 0.9 | 0.00 | 0.00 | 0.00 | 56 | 1013.5 |
| 20260831090830 | 83 | 152 | 0.0 | 0.9 | 0.00 | 0.00 | 0.00 | 55 | 1013.4 |
| 20260831090328 | 83 | 152 | 0.9 | 2.6 | 0.00 | 0.00 | 0.00 | 54 | 1013.4 |
| 20260831090050 | 84 | 149 | 0.9 | 3.5 | 0.00 | 0.00 | 0.00 | 54 | 1013.4 |
| 20260831085549 | 84 | 212 | 0.9 | 4.3 | 0.00 | 0.00 | 0.00 | 54 | 1013.4 |
| 20260831084751 | 84 | 216 | 0.0 | 4.3 | 0.00 | 0.00 | 0.00 | 53 | 1013.5 |
| 20260831084225 | 84 | 131 | 0.0 | 3.5 | 0.00 | 0.00 | 0.00 | 52 | 1013.3 |
| 20260831083659 | 84 | 127 | 0.9 | 3.5 | 0.00 | 0.00 | 0.00 | 52 | 1013.3 |
| 20260831083157 | 85 | 169 | 1.7 | 3.5 | 0.00 | 0.00 | 0.00 | 51 | 1013.3 |
| 20260831082655 | 85 | 210 | 2.6 | 5.2 | 0.00 | 0.00 | 0.00 | 51 | 1013.2 |
| 20260831082126 | 85 | 171 | 1.7 | 6.1 | 0.00 | 0.00 | 0.00 | 51 | 1013.2 |
| 20260831081624 | 85 | 200 | 1.7 | 5.2 | 0.00 | 0.00 | 0.00 | 51 | 1013.3 |